Temperature
26 26 24 24 27 28 28 29 29 29 28 28 28 27 26 25 24 22 21 21 20 19 19 19 19 18 18 18 18 18 18 18 18 18 18 18 18 18 18 18 18 18 18 18 18 18 18 18 18
26 25 25 27 28 28 28 29 29 29 29 28 27 26 26 25 23 22 21 21 20 19 19 19 19 18 18 18 18 18 18 18 18 18 18 18 18 18 18 18 18 18 18 18 18 18 18 18 18
26 26 28 30 30 29 29 29 29 29 29 28 27 26 25 24 23 22 21 21 20 19 19 19 19 19 18 18 18 18 18 18 18 18 18 18 18 18 18 18 18 18 18 18 18 18 18 18 18
26 28 30 31 30 30 30 30 30 30 29 28 27 26 24 24 23 22 22 21 20 19 19 19 19 19 18 18 18 18 18 18 18 18 18 18 18 18 18 18 18 18 18 18 18 18 18 18 18
28 30 31 31 31 31 31 31 30 30 29 27 26 25 24 23 23 22 22 21 21 19 19 19 19 19 19 18 18 18 18 18 18 18 18 18 18 18 18 18 18 18 18 18 18 18 18 18 18
31 32 31 30 31 31 32 31 30 29 28 27 26 25 24 23 23 23 22 22 21 20 19 20 19 19 19 19 19 19 18 18 18 18 18 18 18 18 18 18 18 18 18 18 18 18 18 18 18
32 32 31 31 31 31 31 31 30 30 29 28 27 25 24 24 23 23 22 22 21 21 20 19 19 19 19 19 19 19 19 18 18 18 18 18 18 18 18 18 18 18 18 18 18 18 18 18 18
33 33 32 32 31 31 31 31 30 29 29 28 27 26 24 24 23 23 22 22 21 21 20 19 19 19 19 19 19 19 19 18 18 18 18 18 18 18 18 18 18 18 18 18 18 18 18 18 18
34 33 32 32 31 31 32 31 30 29 28 28 27 26 24 24 24 23 22 22 21 21 20 20 20 19 19 19 19 19 19 18 18 18 18 18 18 18 18 18 18 18 18 18 18 18 18 18 18
34 32 33 33 33 32 32 31 30 29 28 27 26 25 24 24 24 23 23 22 22 21 21 20 20 20 19 19 19 19 18 18 18 18 18 18 18 18 18 18 18 18 18 18 18 18 18 18 18
34 33 34 34 33 32 32 31 31 30 29 27 26 25 25 24 24 23 23 22 22 21 21 20 20 20 20 19 19 19 19 18 18 18 18 18 18 18 18 18 18 18 18 18 18 18 18 18 18
34 34 34 33 33 33 32 31 31 30 29 27 26 25 25 24 24 24 23 22 21 21 21 21 20 20 19 19 19 19 19 19 19 18 18 18 18 18 18 18 18 18 18 18 18 18 18 18 18
34 34 34 33 33 33 32 31 30 29 28 27 26 25 25 25 24 23 23 22 21 21 21 20 20 19 19 19 19 19 19 19 19 19 18 18 18 18 18 18 18 18 18 18 18 18 18 18 18
35 34 34 33 33 32 31 31 30 29 28 27 26 26 25 25 24 23 23 22 21 21 20 20 20 19 19 19 19 19 19 19 19 19 19 18 18 19 18 18 18 19 19 18 18 18 18 18 18
34 34 33 33 33 32 31 30 30 29 28 28 27 26 25 25 24 23 23 22 21 21 20 20 20 19 19 19 19 19 19 19 19 19 19 18 19 19 19 19 19 19 19 19 19 18 18 18 18
34 32 31 32 34 33 31 29 30 29 29 28 27 26 25 25 24 24 23 22 21 21 20 20 20 19 19 19 19 19 19 19 19 19 19 19 19 19 19 19 19 19 19 19 19 19 18 18 18
32 31 31 32 34 34 32 30 31 30 29 28 28 27 26 25 24 24 23 22 21 21 20 20 20 20 19 19 19 19 19 19 19 19 19 19 19 19 19 19 19 19 19 19 19 18 18 18 18
31 32 32 33 34 34 32 31 31 30 30 29 28 27 26 25 25 24 23 22 21 21 20 20 20 20 19 19 19 19 19 19 19 19 19 19 19 19 19 19 19 19 19 19 18 18 18 18 18
33 33 33 33 34 33 32 32 32 31 31 30 29 28 27 26 25 24 23 22 22 21 20 20 20 20 19 19 19 19 19 19 19 19 19 19 18 18 19 18 18 19 18 18 18 18 18 18 18
34 33 33 34 34 33 32 31 32 32 31 31 30 29 28 27 25 24 23 23 22 21 20 20 20 20 20 19 19 19 19 19 19 19 19 19 18 18 19 19 19 18 18 18 18 18 18 18 18
34 33 33 33 34 33 32 30 30 31 31 31 30 29 28 27 26 24 24 23 22 21 21 20 20 20 20 19 19 19 19 19 19 19 19 19 19 19 19 19 18 18 18 18 18 18 18 18 18
33 33 33 34 33 32 32 30 30 30 31 31 31 30 29 28 26 25 24 24 23 22 21 21 20 20 20 20 19 19 19 19 19 19 19 19 19 19 18 18 18 18 18 18 18 18 18 18 18
33 34 34 34 33 32 32 31 30 31 30 31 31 30 30 28 27 26 25 24 23 22 21 21 20 20 20 20 19 19 19 19 19 19 19 19 18 18 18 18 18 18 18 18 18 18 18 18 17
34 34 33 33 33 30 31 31 30 31 31 32 32 31 30 29 28 26 25 24 23 22 22 21 21 20 20 20 19 19 19 19 19 19 19 19 19 18 18 18 18 18 18 18 18 18 17 17 17
33 32 30 30 30 30 32 32 31 32 33 33 32 31 30 29 28 27 25 24 23 23 22 21 21 21 20 20 19 19 19 19 19 19 19 19 18 18 18 18 18 18 18 18 18 17 17 17 17
32 32 30 29 29 30 31 31 32 33 33 33 32 31 30 30 28 27 26 25 24 23 22 22 21 21 20 20 20 20 19 19 19 19 19 18 18 18 18 18 18 18 18 17 17 17 17 17 17
32 32 33 31 31 31 31 32 32 33 33 33 32 32 31 30 29 27 26 25 24 23 23 22 21 21 21 20 20 20 20 19 19 19 19 18 18 18 18 18 18 18 18 18 17 17 17 17 16
34 33 32 31 30 30 31 31 31 32 32 33 33 32 31 30 29 28 27 26 25 24 23 22 21 21 21 20 20 20 20 19 19 19 18 18 18 18 18 18 17 17 17 17 17 16 17 16 16
33 33 32 32 31 30 30 30 32 32 32 33 32 32 31 30 29 28 27 26 25 24 23 22 21 21 21 20 20 20 19 19 19 19 18 18 18 18 18 17 17 17 17 17 17 16 16 16 16
34 33 33 31 30 31 31 30 33 33 33 33 32 31 30 30 29 28 27 26 25 24 23 22 21 21 21 20 20 20 19 19 19 18 18 18 18 18 18 17 17 17 17 17 16 16 16 16 16
Wind_Speed
10 11 9 5 2 6 16 15 15 16 16 16 17 15 18 16 12 11 8 13 15 15 15 15 14 14 14 15 15 16 16 17 17 17 17 17 17 17 17 17 17 17 17 17 16 16 16 16 16
10 11 8 3 3 10 15 14 15 15 15 15 18 18 19 19 16 13 11 13 15 15 15 15 14 14 14 15 15 16 16 16 16 16 17 17 16 17 17 16 16 16 16 15 15 15 16 16 15
12 13 5 2 10 14 15 14 14 14 13 15 17 17 15 14 15 12 11 14 16 16 16 15 15 15 15 15 15 16 16 16 16 16 16 16 16 16 16 16 15 15 15 15 15 15 15 15 13
8 5 1 7 17 16 14 13 13 14 13 14 14 13 15 15 15 15 13 15 16 16 16 16 15 15 15 15 15 15 15 15 16 16 15 15 16 16 15 15 15 15 15 15 15 15 14 14 12
9 2 5 12 17 15 14 14 14 14 15 17 18 17 16 15 15 15 13 13 15 17 16 16 16 16 15 15 15 15 15 15 15 15 15 15 15 15 15 15 15 15 15 15 14 14 13 13 11
4 1 6 12 16 15 14 14 15 15 16 17 17 18 14 13 13 13 13 13 15 17 16 16 16 16 15 15 15 14 14 14 14 15 15 15 14 14 14 14 14 14 14 14 14 13 12 11 9
3 3 8 14 14 14 14 13 14 14 13 14 16 16 13 13 12 13 13 12 14 15 15 14 15 15 14 14 14 14 14 13 13 13 13 13 13 13 13 13 12 13 12 12 12 11 10 9 7
1 3 8 14 14 14 14 14 14 14 12 12 12 12 13 12 13 13 13 12 12 12 12 13 14 14 13 13 13 12 12 12 11 11 11 11 12 12 12 12 11 11 11 10 10 9 8 7 5
2 4 9 13 13 13 13 14 15 15 14 13 15 17 15 14 14 13 12 11 10 10 9 9 11 11 12 13 13 12 11 10 9 8 8 9 8 10 9 11 11 10 9 9 8 7 6 4 4
5 7 13 13 13 13 12 12 13 13 14 15 18 17 15 13 12 11 11 11 10 9 9 8 9 8 7 9 11 10 9 9 7 7 8 6 5 7 10 12 10 9 8 8 7 6 6 5 5
9 10 13 13 14 13 11 11 12 13 13 15 16 16 14 13 11 11 10 11 10 8 8 9 9 6 5 5 6 6 6 7 7 7 6 5 5 7 9 8 8 7 8 7 8 7 6 5 4
9 10 11 11 11 12 11 12 13 14 15 17 16 15 13 12 11 11 11 11 9 8 7 8 9 7 5 4 3 4 4 4 4 5 4 4 2 2 3 3 6 6 5 5 5 4 3 1 1
7 9 10 11 11 12 12 13 15 16 16 17 16 14 12 12 12 11 11 10 10 7 8 8 8 7 5 4 2 3 3 4 6 5 4 4 3 3 3 1 1 2 3 4 2 2 1 1 0
6 8 9 9 9 12 12 11 13 15 16 16 14 13 12 12 12 11 11 10 9 8 8 8 8 7 5 3 1 1 3 4 4 4 4 3 4 3 2 2 1 0 1 2 2 2 2 2 1
5 6 7 8 9 11 12 8 13 14 15 15 14 12 11 11 11 10 10 9 9 8 7 6 7 7 4 3 1 1 2 4 4 4 4 3 4 2 1 2 2 2 2 3 2 1 1 2 2
5 4 5 5 7 10 8 8 13 13 13 13 13 13 11 10 10 10 10 9 9 8 6 4 6 8 5 3 0 1 2 3 3 4 4 3 3 1 1 1 1 1 1 2 2 1 1 1 1
5 5 6 7 7 8 7 9 13 13 13 13 12 13 12 11 10 10 10 10 9 8 6 4 4 6 5 4 2 1 2 2 1 2 3 3 2 1 1 0 1 0 0 1 1 2 1 1 1
7 5 6 7 7 8 7 10 14 14 13 14 13 13 13 12 11 11 10 10 9 8 7 5 4 5 4 3 2 1 1 1 1 2 2 2 1 1 1 1 1 1 0 1 1 2 1 1 1
9 7 5 5 6 5 6 9 14 14 13 14 13 13 13 12 13 12 11 11 10 9 7 6 5 5 3 2 2 2 2 1 2 2 3 2 1 1 1 1 0 0 0 0 0 1 1 1 2
9 5 3 5 5 3 4 5 8 12 13 13 14 14 13 13 13 12 11 11 11 9 8 7 5 5 4 3 2 1 1 1 1 2 2 1 1 2 1 1 1 1 1 1 1 1 2 2 2
7 3 4 4 4 4 4 5 6 9 9 13 14 14 14 15 14 13 12 11 11 10 9 8 6 6 5 4 3 1 1 1 1 1 2 1 0 1 2 1 1 1 1 0 2 1 2 2 2
7 6 7 8 7 5 5 4 9 12 12 13 14 14 15 15 15 14 12 11 11 10 10 8 7 6 5 4 3 3 3 2 1 1 2 1 1 1 1 2 2 2 2 1 2 0 1 2 2
7 6 7 9 7 5 6 5 6 10 12 14 14 14 14 15 16 15 14 11 10 10 10 9 8 7 5 4 3 2 1 1 1 1 2 0 1 1 1 2 2 1 1 2 2 2 2 2 2
8 7 7 8 7 7 8 6 4 7 10 13 14 14 13 15 16 15 14 12 10 10 10 10 9 7 6 4 4 3 1 1 1 0 1 1 2 1 2 2 2 2 2 2 2 2 2 1 1
9 7 6 7 6 6 6 5 4 7 8 10 13 14 14 14 15 15 14 13 11 11 11 11 10 8 6 5 4 3 2 2 2 1 1 1 1 2 2 2 2 2 2 1 1 1 2 2 2
13 13 9 6 6 6 5 4 5 8 9 9 11 13 14 13 14 15 14 14 12 12 11 11 10 8 7 6 4 3 3 2 2 1 1 1 1 2 2 2 2 2 2 2 2 2 2 2 2
14 14 13 9 9 6 4 6 8 9 10 10 10 12 14 14 14 15 15 14 13 12 11 10 10 8 7 6 5 4 3 2 2 2 0 2 2 2 3 2 3 3 3 3 3 2 3 3 3
15 12 7 9 7 6 5 5 5 11 10 10 11 11 12 13 14 15 14 14 13 12 11 11 10 8 7 6 6 5 4 3 2 2 2 3 3 3 3 3 3 3 3 3 2 3 3 3 3
15 14 10 8 7 7 5 2 6 8 10 10 11 11 12 13 13 14 13 13 13 13 12 11 10 9 7 6 5 4 4 4 3 2 3 3 2 3 2 3 3 3 3 3 3 3 3 4 3
16 16 13 9 7 7 5 2 5 7 9 10 10 10 10 11 12 13 13 13 12 12 12 11 10 9 8 7 6 5 5 4 4 3 3 3 3 2 2 2 2 2 3 3 4 4 4 4 4
Wind_Direction
205 217 218 241 238 71 69 67 68 68 67 63 63 67 60 55 68 88 100 93 95 95 94 86 81 82 81 83 84 84 83 86 87 87 88 92 93 96 97 96 96 98 98 98 102 105 106 107 108
232 229 223 241 70 73 74 74 73 73 75 74 71 72 71 70 82 97 98 95 94 94 92 87 87 86 85 86 87 87 87 87 88 88 90 93 93 95 95 95 95 95 95 97 101 106 107 108 110
253 252 258 74 68 72 76 82 85 85 85 83 75 66 66 78 85 98 106 102 94 92 92 89 89 90 88 87 88 89 89 89 90 90 90 93 93 94 95 95 94 93 92 94 102 106 110 111 114
256 237 185 75 73 74 80 89 91 89 85 85 84 77 72 79 94 104 110 103 102 100 96 93 92 93 91 90 90 91 91 91 91 90 91 92 92 93 93 93 92 91 89 91 97 102 109 114 117
248 278 84 78 77 77 81 86 88 86 83 83 87 91 88 89 98 107 108 104 106 103 102 100 97 97 93 92 93 96 92 91 92 94 95 92 92 94 94 93 92 90 90 90 95 100 107 114 118
255 62 81 84 82 80 81 87 89 88 93 98 99 99 97 103 104 106 106 105 106 108 107 108 103 99 96 95 93 99 98 96 96 96 96 96 96 96 94 94 94 94 93 93 94 100 107 113 120
277 52 90 93 90 84 82 84 89 91 96 101 107 105 109 109 109 105 100 100 104 109 116 121 117 111 105 102 102 102 103 100 100 102 104 104 103 102 99 99 99 98 97 98 100 102 107 112 118
296 74 91 91 91 88 88 88 89 90 87 101 110 112 119 118 115 108 105 103 101 103 115 126 126 127 125 116 114 114 113 111 111 114 116 117 116 114 114 112 107 105 105 106 106 106 112 118 128
31 68 80 86 93 97 97 98 96 94 88 79 86 108 119 125 120 116 109 103 99 102 107 114 119 131 133 128 128 132 127 125 127 132 135 142 144 136 134 116 119 118 119 119 122 126 132 144 168
67 75 80 86 95 98 97 103 109 107 103 98 99 110 122 125 123 122 118 115 109 109 111 104 103 112 121 123 137 145 141 143 154 149 151 164 146 133 125 127 134 137 138 140 152 158 168 187 189
85 84 88 90 96 103 105 105 106 107 111 115 120 125 127 126 127 119 113 107 107 109 103 108 104 104 104 112 136 138 136 142 154 153 146 141 129 135 134 149 155 164 170 176 171 183 201 197 186
92 90 92 98 103 103 100 97 93 93 104 118 123 128 132 135 127 119 114 114 110 101 99 97 97 86 67 70 96 133 137 138 126 134 122 115 107 101 113 144 159 173 173 171 172 185 192 196 170
101 102 101 103 103 101 98 95 97 99 108 117 125 130 136 131 122 113 109 111 115 114 105 94 91 85 77 52 3 92 107 118 121 114 107 129 126 98 106 111 136 161 139 154 168 168 129 127 116
106 106 112 113 110 108 100 104 107 114 121 125 131 137 138 128 125 123 122 120 123 121 115 112 111 107 106 101 34 33 95 99 105 108 109 112 113 107 123 133 118 136 151 142 138 138 138 137 109
125 127 126 132 132 119 113 115 117 130 132 135 138 137 130 127 128 134 133 133 133 128 121 126 131 125 130 128 157 122 128 114 111 115 108 87 100 120 133 157 189 175 170 145 158 161 141 161 154
169 172 149 163 152 138 129 127 134 145 144 142 143 141 140 139 140 138 137 137 136 131 128 142 130 128 130 123 36 14 78 103 115 128 124 109 111 114 261 213 153 132 179 169 157 184 152 97 94
225 197 171 177 166 140 138 140 149 156 152 148 151 150 151 153 153 146 144 143 136 132 134 133 113 122 132 137 148 122 84 67 107 114 117 134 151 141 258 55 101 246 210 175 197 118 124 126 101
224 209 186 182 156 149 141 141 152 164 160 159 161 159 159 163 163 155 151 148 143 140 140 140 133 121 132 142 156 178 134 166 157 116 119 132 186 193 244 183 187 210 57 35 49 94 104 151 188
232 216 192 159 150 158 156 153 159 166 165 163 163 162 163 163 158 155 158 157 152 147 146 149 152 137 138 151 175 174 168 193 157 154 144 149 238 294 246 330 350 199 194 233 59 117 178 205 179
244 234 191 157 158 177 164 160 171 165 171 170 166 165 164 159 154 155 161 163 156 154 155 156 158 152 163 162 183 181 150 225 127 75 107 150 225 266 252 205 284 340 356 14 261 219 225 236 221
239 244 244 209 200 196 177 184 186 177 182 172 170 168 166 167 164 165 170 169 164 163 165 167 160 157 166 171 179 160 141 283 96 129 136 166 270 338 334 325 330 344 298 277 263 233 243 245 249
238 231 246 239 234 221 214 202 182 185 185 181 175 172 172 170 167 168 170 170 167 164 163 155 155 155 165 176 189 193 186 181 164 132 115 129 114 60 356 355 32 12 348 348 302 355 281 266 271
244 242 242 254 252 242 227 237 178 176 184 183 177 177 176 171 169 169 169 167 165 163 160 155 153 157 165 178 189 210 193 164 138 116 135 147 112 69 42 57 38 17 3 19 347 331 310 291 293
235 247 255 256 253 242 230 242 181 181 188 177 173 173 174 172 168 166 163 161 163 163 159 158 155 160 167 184 185 190 173 133 118 157 175 199 145 89 52 77 38 36 23 11 353 328 324 327 324
213 225 234 235 238 242 217 221 169 165 164 166 167 169 170 169 165 163 161 162 165 164 162 155 155 162 172 180 177 174 184 178 180 229 206 231 124 105 66 54 37 43 37 11 3 344 4 357 335
212 224 230 228 231 229 214 206 162 149 140 142 156 163 163 164 163 163 161 162 166 166 160 153 156 164 170 170 166 168 173 196 192 219 316 95 62 78 86 74 66 44 20 15 17 8 21 38 4
218 227 241 247 250 252 212 178 151 147 147 149 153 155 161 165 165 164 165 165 167 164 159 154 153 159 169 166 157 160 171 191 138 121 72 76 72 81 66 62 67 64 48 30 27 43 27 20 14
233 230 235 247 254 253 222 201 179 154 156 156 155 155 161 164 164 163 164 163 162 160 154 150 152 159 164 165 171 168 165 148 135 137 107 75 69 61 67 59 58 56 52 41 30 50 43 33 34
221 232 235 245 257 252 242 176 147 159 156 159 157 157 160 161 161 160 160 159 157 155 154 153 153 158 162 166 161 148 151 153 146 123 104 98 86 76 63 59 55 56 54 47 47 55 49 46 38
222 227 227 231 242 254 256 172 143 158 162 156 147 146 151 150 149 150 152 151 151 152 154 155 158 163 167 163 155 153 148 146 146 135 121 117 109 95 85 73 67 69 68 56 49 44 48 48 42
Height
1475 1475 1477 1479 1478 1479 1484 1482 1479 1481 1483 1486 1487 1489 1493 1495 1501 1514 1515 1513 1514 1513 1513 1513 1512 1512 1512 1512 1512 1513 1512 1513 1513 1514 1514 1515 1516 1517 1518 1519 1520 1520 1521 1521 1522 1524 1526 1528 1531
1475 1477 1480 1478 1479 1489 1490 1482 1483 1485 1487 1489 1491 1494 1498 1502 1507 1512 1515 1516 1516 1516 1515 1515 1515 1515 1515 1515 1516 1516 1516 1517 1517 1518 1518 1519 1520 1520 1521 1522 1523 1524 1524 1524 1524 1526 1528 1531 1533
1476 1478 1480 1473 1477 1487 1489 1483 1484 1486 1489 1492 1495 1499 1503 1508 1511 1515 1518 1519 1519 1518 1518 1517 1517 1517 1518 1518 1519 1519 1520 1520 1521 1521 1522 1523 1523 1524 1525 1525 1526 1527 1527 1526 1526 1527 1530 1533 1536
1477 1478 1476 1473 1480 1480 1481 1482 1484 1487 1491 1493 1497 1504 1510 1513 1515 1518 1520 1521 1521 1521 1520 1520 1520 1520 1521 1521 1522 1523 1523 1524 1524 1525 1525 1526 1526 1527 1528 1529 1529 1529 1529 1529 1529 1530 1532 1535 1538
1479 1475 1475 1479 1480 1478 1479 1482 1486 1489 1493 1497 1502 1508 1514 1517 1519 1520 1522 1523 1523 1523 1523 1523 1523 1523 1524 1524 1525 1526 1526 1527 1527 1528 1528 1529 1530 1530 1531 1532 1532 1533 1533 1532 1532 1533 1534 1537 1541
1476 1472 1481 1487 1484 1481 1482 1485 1489 1493 1496 1501 1506 1511 1517 1520 1521 1523 1524 1525 1526 1526 1526 1526 1526 1526 1527 1527 1528 1528 1529 1530 1530 1531 1531 1532 1533 1534 1535 1535 1535 1536 1536 1536 1536 1536 1538 1541 1543
1475 1473 1480 1481 1485 1485 1485 1488 1491 1494 1498 1502 1507 1512 1518 1522 1524 1525 1527 1528 1528 1529 1528 1529 1529 1530 1530 1531 1531 1532 1532 1533 1533 1534 1535 1536 1536 1537 1538 1538 1539 1539 1540 1540 1541 1541 1542 1544 1547
1471 1471 1477 1479 1486 1489 1488 1491 1494 1497 1501 1504 1507 1513 1519 1523 1525 1527 1529 1530 1531 1531 1532 1532 1532 1533 1533 1534 1535 1535 1536 1536 1537 1538 1538 1539 1539 1540 1541 1541 1542 1543 1543 1544 1545 1545 1547 1548 1550
1470 1475 1481 1480 1485 1488 1488 1492 1496 1501 1504 1506 1509 1514 1520 1524 1526 1528 1530 1532 1533 1534 1535 1536 1536 1537 1537 1537 1538 1538 1539 1539 1540 1541 1541 1541 1542 1543 1543 1544 1545 1546 1546 1547 1548 1548 1550 1551 1553
1471 1479 1479 1477 1481 1486 1489 1492 1496 1501 1505 1510 1515 1519 1523 1525 1528 1530 1531 1533 1535 1536 1537 1538 1539 1540 1541 1541 1541 1541 1542 1542 1542 1543 1543 1544 1545 1546 1547 1547 1547 1548 1549 1549 1550 1551 1552 1553 1554
1472 1476 1476 1479 1482 1487 1490 1492 1496 1500 1505 1512 1516 1520 1524 1527 1529 1531 1533 1534 1536 1537 1539 1540 1541 1541 1542 1543 1543 1544 1545 1545 1545 1546 1546 1547 1548 1549 1549 1549 1549 1550 1550 1551 1552 1553 1554 1555 1556
1474 1475 1478 1481 1484 1487 1490 1493 1497 1502 1507 1513 1517 1521 1524 1527 1529 1532 1534 1536 1538 1539 1540 1541 1542 1542 1543 1544 1545 1546 1547 1547 1548 1548 1548 1549 1550 1550 1551 1551 1551 1551 1552 1553 1554 1554 1555 1556 1557
1475 1477 1479 1482 1485 1488 1492 1496 1501 1506 1510 1515 1519 1523 1525 1528 1530 1533 1535 1537 1539 1540 1541 1542 1542 1543 1544 1544 1546 1547 1548 1549 1549 1549 1550 1550 1550 1551 1552 1552 1552 1553 1554 1554 1555 1555 1556 1557 1557
1476 1478 1481 1484 1486 1489 1494 1498 1503 1509 1513 1516 1520 1523 1525 1528 1531 1533 1536 1538 1539 1541 1542 1543 1543 1544 1544 1546 1547 1548 1549 1549 1550 1550 1551 1551 1552 1552 1553 1553 1553 1554 1554 1555 1555 1556 1556 1557 1557
1478 1480 1483 1484 1486 1489 1495 1501 1503 1509 1513 1516 1520 1523 1526 1529 1532 1534 1536 1538 1540 1541 1542 1543 1544 1544 1545 1547 1548 1549 1550 1550 1550 1550 1551 1552 1552 1553 1554 1554 1554 1554 1555 1555 1555 1556 1556 1557 1557
1479 1485 1492 1486 1484 1487 1496 1508 1504 1508 1512 1516 1519 1523 1527 1529 1532 1534 1536 1538 1539 1541 1542 1544 1545 1545 1546 1547 1548 1549 1550 1550 1551 1551 1551 1552 1552 1553 1553 1554 1554 1554 1555 1555 1555 1555 1556 1556 1557
1486 1493 1496 1487 1481 1484 1491 1503 1501 1505 1510 1514 1518 1522 1526 1529 1532 1534 1536 1538 1539 1540 1542 1544 1545 1545 1546 1547 1548 1549 1550 1550 1551 1552 1552 1552 1552 1553 1553 1553 1554 1554 1554 1554 1555 1555 1555 1555 1555
1493 1491 1491 1487 1479 1482 1489 1495 1498 1502 1506 1511 1516 1520 1524 1527 1531 1533 1535 1537 1539 1540 1542 1543 1544 1545 1546 1547 1548 1549 1550 1550 1551 1551 1551 1552 1552 1552 1553 1553 1553 1553 1553 1553 1553 1553 1554 1554 1554
1478 1481 1485 1481 1476 1482 1488 1493 1494 1498 1503 1507 1512 1517 1521 1525 1529 1532 1534 1536 1538 1540 1541 1542 1543 1544 1546 1547 1548 1549 1549 1550 1551 1551 1551 1551 1551 1552 1552 1552 1552 1552 1552 1552 1552 1552 1552 1552 1552
1475 1480 1482 1478 1476 1482 1489 1493 1492 1495 1499 1503 1508 1514 1519 1523 1527 1530 1533 1535 1537 1538 1540 1541 1542 1544 1545 1546 1547 1548 1549 1550 1550 1551 1551 1551 1551 1551 1551 1551 1551 1551 1551 1551 1550 1550 1550 1551 1551
1476 1481 1482 1483 1478 1480 1489 1499 1497 1496 1497 1501 1505 1510 1515 1520 1524 1528 1531 1534 1536 1537 1538 1540 1541 1543 1544 1545 1547 1548 1548 1549 1550 1550 1550 1550 1550 1550 1550 1550 1550 1550 1549 1549 1549 1549 1548 1548 1549
1483 1475 1477 1478 1485 1493 1491 1510 1500 1494 1496 1498 1501 1507 1511 1516 1521 1525 1529 1532 1534 1536 1537 1539 1540 1542 1543 1544 1546 1547 1548 1548 1549 1549 1549 1549 1549 1549 1549 1549 1548 1548 1548 1547 1547 1547 1547 1547 1547
1477 1471 1475 1476 1482 1491 1491 1501 1499 1490 1495 1494 1497 1502 1507 1512 1517 1522 1526 1529 1532 1534 1536 1537 1539 1541 1542 1543 1545 1546 1547 1548 1548 1548 1549 1549 1548 1548 1548 1548 1547 1547 1546 1546 1545 1545 1545 1545 1545
1471 1474 1476 1478 1483 1504 1494 1497 1502 1490 1489 1488 1492 1498 1504 1509 1514 1519 1523 1527 1531 1533 1535 1536 1538 1539 1541 1542 1544 1545 1546 1547 1547 1548 1548 1548 1548 1547 1547 1546 1546 1545 1545 1544 1543 1543 1543 1543 1542
1473 1487 1503 1508 1508 1505 1485 1491 1494 1479 1479 1483 1488 1495 1501 1506 1511 1516 1521 1525 1529 1532 1534 1535 1537 1539 1540 1541 1543 1543 1544 1545 1546 1547 1547 1547 1547 1546 1546 1545 1545 1544 1544 1543 1542 1542 1541 1541 1541
1475 1482 1503 1518 1518 1503 1489 1493 1484 1474 1477 1481 1486 1492 1498 1504 1509 1514 1519 1523 1527 1530 1532 1534 1535 1537 1539 1540 1541 1542 1543 1544 1545 1546 1546 1546 1546 1545 1544 1544 1543 1543 1542 1542 1541 1541 1540 1540 1540
1473 1476 1473 1488 1492 1499 1493 1484 1477 1473 1476 1481 1485 1490 1496 1502 1507 1512 1517 1521 1525 1528 1531 1533 1534 1536 1538 1540 1541 1542 1543 1544 1544 1545 1545 1545 1545 1544 1543 1543 1543 1542 1541 1541 1540 1540 1540 1540 1540
1462 1466 1477 1489 1504 1510 1499 1492 1488 1480 1479 1480 1484 1489 1494 1499 1504 1510 1515 1519 1523 1526 1529 1532 1534 1535 1537 1539 1540 1541 1542 1543 1543 1544 1544 1544 1544 1543 1543 1542 1542 1542 1541 1540 1540 1540 1539 1539 1539
1467 1469 1473 1479 1483 1503 1510 1500 1473 1475 1476 1479 1483 1488 1493 1497 1502 1507 1512 1517 1521 1525 1528 1531 1533 1535 1536 1538 1539 1540 1541 1542 1543 1543 1543 1543 1543 1543 1542 1542 1542 1541 1541 1540 1540 1540 1539 1539 1538
1457 1463 1468 1486 1490 1487 1494 1496 1468 1469 1473 1477 1481 1487 1492 1496 1501 1506 1511 1516 1520 1524 1527 1529 1532 1534 1535 1537 1538 1539 1540 1541 1541 1542 1542 1542 1542 1542 1542 1542 1541 1541 1541 1540 1540 1539 1539 1539 1538